Location: Caltech
(34.1382°N, 118.1253°W)
Time: 20:16:22
(UTC-07:00)

Cosmos 1408 Rocket - Visible Passes

Search period start: 26 April 2017 00:00
Search period end: 06 May 2017 00:00
Orbit: 602 x 631 km, 82.6° (Epoch: 25 April)

Date Brightness Start Highest point End Pass type
(mag) Time Alt. Az. Time Alt. Az. Time Alt. Az.
26 Apr 5.8 04:56:23 10° SSE 05:00:09 27° E 05:03:55 10° NNE visible
27 Apr 4.5 05:12:09 10° S 05:16:29 53° E 05:20:50 10° NNE visible
28 Apr 3.6 05:28:28 10° S 05:32:55 78° W 05:37:24 10° N visible
29 Apr 6.5 04:09:45 10° ESE 04:12:04 14° E 04:14:22 10° NE visible
30 Apr 5.7 04:24:36 10° SE 04:28:19 26° E 04:32:02 10° NNE visible
01 May 4.4 04:40:21 10° SSE 04:44:40 51° E 04:48:59 10° NNE visible
02 May 3.5 04:56:38 10° S 05:01:05 81° W 05:05:33 10° N visible
03 May 6.4 03:38:04 10° ESE 03:40:14 13° E 03:42:23 10° ENE visible
03 May 4.1 05:13:23 10° SSW 05:17:35 40° W 05:21:48 10° N visible
04 May 5.6 03:52:49 10° SE 03:56:29 25° E 04:00:08 10° NE visible
04 May 4.9 05:30:45 10° SW 05:34:11 22° WNW 05:37:37 10° NNW visible
05 May 4.4 04:09:38 17° SSE 04:12:49 49° E 04:17:07 10° NNE visible
